{"data":{"norad_id":53685,"intl_designator":"2022-105AP","name":"STARLINK-4626","alt_names":[],"object_type":"PAYLOAD","status":"ACTIVE","operator":null,"country":"US","launch_date":"2022-08-31","launch_site_code":"AFWTR","launch_vehicle":null,"mission":null,"orbit_class":"UNKNOWN","rcs_meters":null,"size_class":null,"mass_kg":null,"dimensions":null,"purposes":["comms"],"wikipedia_slug":null,"has_3d_model":false,"image_url":null,"decayed_at":null,"tle_current":{"epoch":"2026-09-20T21:56:46.223232Z","epoch_age_seconds":45878,"freshness":"FRESH","line1":"1 53685U 22105AP  26263.91442388 -.00000439  00000+0 -26486-4 0  9992","line2":"2 53685  97.2843 137.6144 0002292  72.4652 287.6826 15.05659230222606","mean_motion":15.0565923,"eccentricity":0.0002292,"inclination_deg":97.2843,"raan_deg":137.6144,"arg_perigee_deg":72.4652,"mean_anomaly_deg":287.6826,"bstar":-2.6486e-5,"rev_number":22260,"period_min":95.639170624285,"perigee_km":547.89503160602,"apogee_km":551.07065254162,"semimajor_km":6927.6198420738,"source":"CELESTRAK","updated_at":"2026-09-21T09:00:32.979348Z"}}}